Montevideo, MN

10:45 PM CST on February 07, 2016 (GMT -0600)
Montevideo-Chippewa County

Weather History for KMVE - September, 2013

Change the Weather History Date:

Tuesday, September 10, 2013

  Actual Average (KRWF) Record (KRWF)
Temperature  
Mean Temperature 74 °F -  
Max Temperature 82 °F 78 °F - (-1)
Min Temperature 66 °F 52 °F - (-1)
Cooling Degree Days 9    
Growing Degree Days 24 (Base 50)    
Moisture  
Dew Point 63 °F    
Average Humidity 74    
Maximum Humidity 100    
Minimum Humidity 42    
Precipitation  
Precipitation 0.03 in - - ()
Sea Level Pressure  
Sea Level Pressure 29.93 in    
Wind  
Wind Speed 4 mph (WNW)    
Max Wind Speed 15 mph    
Max Gust Speed 17 mph    
Visibility 10 miles    
Events Rain , Thunderstorm    
Averages and records for this station are not official NWS values.
T = Trace of Precipitation, MM = Missing Value Source: NWS Daily Summary

Daily Weather History Graph

Daily Weather History Graph

Search for Another Location

Airport or City:

Trip Planner

Search our weather history database for the weather conditions in past years. The results will help you decide how hot, cold, wet, or windy it might be!

Date:

Astronomy

Sep. 10, 2013 Rise Set
Actual Time 6:55 AM CDT 7:42 PM CDT
Civil Twilight 6:26 AM CDT 8:12 PM CDT
Nautical Twilight 5:50 AM CDT 8:47 PM CDT
Astronomical Twilight 5:13 AM CDT 9:24 PM CDT
Moon 12:38 PM CDT (9/10) 10:30 PM CDT (9/10)
Length of Visible Light 13h 46m
Length of Day
12h 46m
Waxing Crescent, 28% of the Moon is Illuminated
Sep 10
Waxing Crescent
Sep 12
First Quarter
Sep 19
Full
Sep 26
Last Quarter
Oct 4
New

Hourly Weather History & Observations

Time (CDT) Temp. Heat Index Dew Point Humidity Pressure Visibility Wind Dir Wind Speed Gust Speed Precip Events Conditions
12:14 AM 66.2 °F - 66.2 °F 100% 29.83 in 10.0 mi West 4.6 mph - N/A Thunderstorm Clear
12:34 AM 68.0 °F - 66.2 °F 94% 29.85 in 10.0 mi West 4.6 mph - N/A   Clear
12:54 AM 68.0 °F - 66.2 °F 94% 29.85 in 10.0 mi West 3.5 mph - N/A   Clear
1:14 AM 68.0 °F - 66.2 °F 94% 29.85 in 10.0 mi Calm Calm - N/A   Clear
1:34 AM 68.0 °F - 66.2 °F 94% 29.86 in 10.0 mi Calm Calm - N/A   Clear
1:54 AM 68.0 °F - 66.2 °F 94% 29.87 in 10.0 mi West 3.5 mph - N/A   Clear
2:14 AM 68.0 °F - 66.2 °F 94% 29.87 in 10.0 mi Calm Calm - N/A   Clear
2:34 AM 68.0 °F - 66.2 °F 94% 29.87 in 10.0 mi Calm Calm - N/A   Clear
2:54 AM 68.0 °F - 66.2 °F 94% 29.87 in 10.0 mi Calm Calm - N/A   Clear
3:14 AM 66.2 °F - 66.2 °F 100% 29.88 in 10.0 mi Calm Calm - N/A   Clear
3:34 AM 68.0 °F - 66.2 °F 94% 29.88 in 10.0 mi Calm Calm - N/A   Clear
3:54 AM 66.2 °F - 66.2 °F 100% 29.87 in 10.0 mi Calm Calm - N/A   Scattered Clouds
4:14 AM 66.2 °F - 66.2 °F 100% 29.86 in 10.0 mi North 3.5 mph - N/A Rain Light Rain
4:34 AM 66.2 °F - 66.2 °F 100% 29.87 in 10.0 mi Calm Calm - N/A   Drizzle
4:54 AM 66.2 °F - 66.2 °F 100% 29.87 in 10.0 mi Calm Calm - 0.01 in Rain Light Rain
5:14 AM 66.2 °F - 66.2 °F 100% 29.90 in 10.0 mi West 4.6 mph - N/A Rain Light Rain
5:33 AM 66.2 °F - 66.2 °F 100% 29.91 in 10.0 mi WSW 3.5 mph - 0.01 in Rain Light Rain
5:54 AM 66.2 °F - 66.2 °F 100% 29.89 in 10.0 mi SW 3.5 mph - 0.01 in Rain Light Rain
6:14 AM 66.2 °F - 66.2 °F 100% 29.88 in 10.0 mi SW 5.8 mph - 0.01 in Rain Rain
6:34 AM 66.2 °F - 66.2 °F 100% 29.88 in 10.0 mi WSW 4.6 mph - 0.01 in   Scattered Clouds
6:54 AM 66.2 °F - 66.2 °F 100% 29.88 in 10.0 mi WSW 4.6 mph - 0.01 in   Clear
7:13 AM 66.2 °F - 66.2 °F 100% 29.89 in 10.0 mi WSW 4.6 mph - N/A   Scattered Clouds
7:34 AM 66.2 °F - 66.2 °F 100% 29.89 in 10.0 mi WSW 4.6 mph - N/A   Mostly Cloudy
7:54 AM 68.0 °F - 66.2 °F 94% 29.89 in 10.0 mi WSW 3.5 mph - N/A   Mostly Cloudy
8:14 AM 68.0 °F - 66.2 °F 94% 29.89 in 10.0 mi WSW 3.5 mph - N/A   Scattered Clouds
8:34 AM 68.0 °F - 66.2 °F 94% 29.90 in 10.0 mi WSW 4.6 mph - N/A   Clear
8:54 AM 69.8 °F - 66.2 °F 88% 29.90 in 10.0 mi WSW 4.6 mph - N/A   Clear
9:13 AM 69.8 °F - 66.2 °F 88% 29.91 in 10.0 mi West 4.6 mph - N/A   Clear
9:34 AM 69.8 °F - 64.4 °F 83% 29.91 in 10.0 mi West 4.6 mph - N/A   Scattered Clouds
9:54 AM 71.6 °F - 64.4 °F 78% 29.93 in 10.0 mi WNW 5.8 mph - N/A   Clear
10:14 AM 71.6 °F - 64.4 °F 78% 29.93 in 10.0 mi WNW 8.1 mph - N/A   Clear
10:34 AM 73.4 °F - 64.4 °F 73% 29.94 in 10.0 mi NW 8.1 mph - N/A   Clear
10:54 AM 73.4 °F - 64.4 °F 73% 29.94 in 10.0 mi NW 4.6 mph - N/A   Clear
11:14 AM 77.0 °F - 64.4 °F 65% 29.94 in 10.0 mi WNW 9.2 mph - N/A   Clear
11:34 AM 78.8 °F - 64.4 °F 61% 29.95 in 10.0 mi NW 6.9 mph - N/A   Clear
11:54 AM 80.6 °F 81.8 °F 62.6 °F 54% 29.95 in 10.0 mi NNW 8.1 mph - N/A   Clear
12:14 PM 80.6 °F 81.5 °F 60.8 °F 51% 29.95 in 10.0 mi NW 9.2 mph - N/A   Clear
12:34 PM 80.6 °F 81.5 °F 60.8 °F 51% 29.95 in 10.0 mi NW 10.4 mph 16.1 mph N/A   Clear
12:54 PM 80.6 °F 81.1 °F 59.0 °F 48% 29.95 in 10.0 mi NW 9.2 mph - N/A   Clear
1:14 PM 80.6 °F 80.8 °F 57.2 °F 45% 29.95 in 10.0 mi NW 10.4 mph 17.3 mph N/A   Clear
1:34 PM 82.4 °F 82.5 °F 59.0 °F 45% 29.95 in 10.0 mi NNW 10.4 mph - N/A   Clear
1:54 PM 80.6 °F 80.8 °F 57.2 °F 45% 29.95 in 10.0 mi NW 9.2 mph 17.3 mph N/A   Clear
2:14 PM 82.4 °F 82.0 °F 57.2 °F 42% 29.95 in 10.0 mi NNW 10.4 mph 16.1 mph N/A   Scattered Clouds
2:34 PM 82.4 °F 82.0 °F 57.2 °F 42% 29.94 in 10.0 mi NNW 15.0 mph - N/A   Clear
2:53 PM 82.4 °F 82.0 °F 57.2 °F 42% 29.94 in 10.0 mi NW 8.1 mph - N/A   Clear
3:14 PM 82.4 °F 82.0 °F 57.2 °F 42% 29.94 in 10.0 mi NW 8.1 mph - N/A   Clear
3:34 PM 82.4 °F 82.0 °F 57.2 °F 42% 29.95 in 10.0 mi NNW 11.5 mph 16.1 mph N/A   Clear
3:54 PM 82.4 °F 82.0 °F 57.2 °F 42% 29.94 in 10.0 mi NW 9.2 mph 16.1 mph N/A   Clear
4:14 PM 82.4 °F 82.5 °F 59.0 °F 45% 29.95 in 10.0 mi North 10.4 mph - N/A   Clear
4:34 PM 80.6 °F 80.8 °F 57.2 °F 45% 29.95 in 10.0 mi NNW 9.2 mph - N/A   Clear
4:54 PM 82.4 °F 82.0 °F 57.2 °F 42% 29.95 in 10.0 mi North 10.4 mph - N/A   Clear
5:14 PM 80.6 °F 80.8 °F 57.2 °F 45% 29.95 in 10.0 mi NNW 9.2 mph - N/A   Clear
5:34 PM 80.6 °F 80.8 °F 57.2 °F 45% 29.95 in 10.0 mi NNW 10.4 mph - N/A   Clear
5:54 PM 80.6 °F 81.1 °F 59.0 °F 48% 29.96 in 10.0 mi NNW 5.8 mph - N/A   Clear
6:14 PM 80.6 °F 81.1 °F 59.0 °F 48% 29.96 in 10.0 mi NW 5.8 mph - N/A   Clear
6:34 PM 78.8 °F - 60.8 °F 54% 29.96 in 10.0 mi NNW 3.5 mph - N/A   Clear
6:54 PM 77.0 °F - 60.8 °F 57% 29.97 in 10.0 mi NNW 3.5 mph - N/A   Clear
7:14 PM 75.2 °F - 60.8 °F 61% 29.97 in 10.0 mi Calm Calm - N/A   Clear
7:34 PM 73.4 °F - 60.8 °F 65% 29.97 in 10.0 mi Calm Calm - N/A   Clear
7:54 PM 73.4 °F - 60.8 °F 65% 29.98 in 10.0 mi Calm Calm - N/A   Clear
8:14 PM 73.4 °F - 60.8 °F 65% 29.98 in 10.0 mi Calm Calm - N/A   Clear
8:34 PM 73.4 °F - 60.8 °F 65% 29.99 in 10.0 mi Calm Calm - N/A   Clear
8:54 PM 71.6 °F - 60.8 °F 69% 29.99 in 10.0 mi Calm Calm - N/A   Clear
9:14 PM 69.8 °F - 60.8 °F 73% 29.99 in 10.0 mi Calm Calm - N/A   Clear
9:34 PM 69.8 °F - 60.8 °F 73% 29.99 in 10.0 mi Calm Calm - N/A   Clear
9:54 PM 71.6 °F - 60.8 °F 69% 29.99 in 10.0 mi Calm Calm - N/A   Clear
10:14 PM 69.8 °F - 60.8 °F 73% 29.99 in 10.0 mi North 3.5 mph - N/A   Clear
10:34 PM 69.8 °F - 60.8 °F 73% 30.00 in 10.0 mi NW 3.5 mph - N/A   Clear
10:54 PM 68.0 °F - 60.8 °F 78% 30.02 in 10.0 mi NW 4.6 mph - N/A   Clear
11:14 PM 68.0 °F - 60.8 °F 78% 30.01 in 10.0 mi Calm Calm - N/A   Clear
11:34 PM 66.2 °F - 62.6 °F 88% 30.02 in 10.0 mi Calm Calm - N/A   Clear
11:54 PM 66.2 °F - 62.6 °F 88% 30.02 in 10.0 mi WSW 4.6 mph - N/A   Clear